Погода в Воскресенском

Украина / Николаевская область     47°00′53″N   32°08′34″E
темп.,
°C
ветер,
м/с
пор.,
м/с
влажн.,
%
обл.,
%
осадки,
мм/ч
давл.,
гПа
погр.,
м
20 июня, вс
вс2000:00+20св5118695 2.0 1012261
03:00+19всв61296100 12.1 1011480
06:00+19всв81490100 6.4 1010460
09:00+22в6117792 7.1 1010682
12:00+25в7873100 0.4 10101242
15:00+26в686589 1.7 10101307
18:00+25вюв596999 0.3 1010426
21:00+22в34801 0.3 101158
21 июня, пн
пн2100:00+19юв22890 0.0 101122
03:00+18юв22915 0.0 101117
06:00+19в119131 0.0 101125
09:00+23в337623 0.0 1012511
12:00+27юв23540 0.0 10111064
15:00+30ююв22455 0.0 10111531
18:00+30с124571 0.0 10101560
21:00+25ссв236611 0.0 101132
22 июня, вт
вт2200:00+23св61179100 0.1 1010264
03:00+21св338211 0.6 101039
06:00+21с34860 0.0 101095
09:00+25св45675 0.1 1010568
12:00+29вюв555661 0.0 10101184
15:00+31вюв3447100 0.0 10101636
18:00+31в455477 0.2 10101543
21:00+23вюв487232 1.5 1011147
23 июня, ср
ср2300:00+21вюв227562 1.1 101221
03:00+20вюв11865 1.2 101211
06:00+21св1186100 0.0 101219
09:00+25св2271100 0.0 1012401
12:00+29юв446128 0.0 10131160
15:00+31вюв225073 0.0 10131749
18:00+22ссз4780100 8.4 1014164
21:00+21с3485100 24.3 101589
24 июня, чт
чт2400:00+21св3781100 0.5 1014114
03:00+20с3478100 0.5 101442
06:00+20с348219 0.0 101468
09:00+25ссз23635 0.0 1015338
12:00+29сз33515 0.0 1014903
15:00+31ссз23455 0.0 10141799
18:00+31зсз34505 0.0 10131450
21:00+21всв81287100 4.8 1014270